Weather History for Alturas, CA

Change the Weather History Date:

Tuesday, March 5, 2013

  Actual Average Record
Temperature  
Mean Temperature 41 °F 37 °F  
Max Temperature 52 °F 50 °F 68 °F (1987)
Min Temperature 29 °F 24 °F -5 °F (1976)
Degree Days  
Heating Degree Days 24 28  
Month to date heating degree days 120 140  
Since 1 July heating degree days 4706 5007  
Cooling Degree Days 0 0  
Month to date cooling degree days 0 0  
Year to date cooling degree days 0 0  
Moisture  
Dew Point 28 °F    
Average Humidity 67    
Maximum Humidity 92    
Minimum Humidity 41    
Precipitation  
Precipitation 0.00 in 0.05 in 1.09 in (1991)
Month to date precipitation 0.04 0.24  
Year to date precipitation 0.77 3.34  
Sea Level Pressure  
Sea Level Pressure 29.81 in    
Wind  
Wind Speed 15 mph (South)    
Max Wind Speed 36 mph    
Max Gust Speed 46 mph    
Visibility 10 miles    
Events      
T = Trace of Precipitation, MM = Missing Value Source: NWS Daily Summary

Daily Weather History Graph

Daily Weather History Graph

Search for Another Location

Airport:

Trip Planner

Search our weather history database for the weather conditions in past years. The results will help you decide how hot, cold, wet, or windy it might be!

Date:

Astronomy

Mar. 05, 2013 Rise Set
Actual Time 6:29 AM PST 5:57 PM PST
Civil Twilight 6:02 AM PST 6:25 PM PST
Nautical Twilight 5:30 AM PST 6:57 PM PST
Astronomical Twilight 4:58 AM PST 7:29 PM PST
Moon 1:50 AM PST (3/5) 11:39 AM PST (3/5)
Length of Visible Light 12h 23m
Length of Day
11h 28m
Last Quarter, 39% of the Moon is Illuminated
Mar 5
Last Quarter
Mar 11
New
Mar 19
First Quarter
Mar 27
Full
Apr 2
Last Quarter

Hourly Weather History & Observations

Time (PST) Temp. Windchill Dew Point Humidity Pressure Visibility Wind Dir Wind Speed Gust Speed Precip Events Conditions
12:55 AM 35.1 °F - 30.0 °F 82% 29.97 in 10.0 mi Calm Calm - N/A   Clear
1:55 AM 34.0 °F - 28.9 °F 82% 29.94 in 10.0 mi Calm Calm - N/A   Clear
2:55 AM 30.9 °F 27.5 °F 28.0 °F 89% 29.94 in 10.0 mi SSE 3.5 mph - N/A   Clear
3:55 AM 30.0 °F - 28.0 °F 92% 29.92 in 10.0 mi Calm Calm - N/A   Scattered Clouds
4:55 AM 36.0 °F 32.1 °F 30.9 °F 82% 29.92 in 10.0 mi South 4.6 mph - N/A   Overcast
5:55 AM 39.0 °F 34.0 °F 32.0 °F 76% 29.88 in 10.0 mi SE 6.9 mph - N/A   Overcast
6:55 AM 39.0 °F 34.8 °F 32.0 °F 76% 29.90 in 10.0 mi SSE 5.8 mph - N/A   Overcast
7:55 AM 41.0 °F 35.8 °F 34.0 °F 76% 29.88 in 10.0 mi SSE 8.1 mph - N/A   Overcast
8:55 AM 48.0 °F - 33.1 °F 56% 29.85 in 10.0 mi South 21.9 mph 27.6 mph N/A   Mostly Cloudy
9:55 AM 48.9 °F - 30.9 °F 50% 29.84 in 10.0 mi South 25.3 mph 34.5 mph N/A   Mostly Cloudy
10:55 AM 51.1 °F - 28.9 °F 43% 29.81 in 10.0 mi South 31.1 mph 43.7 mph N/A   Scattered Clouds
11:55 AM 48.9 °F - 28.9 °F 46% 29.81 in 10.0 mi South 28.8 mph 36.8 mph N/A   Overcast
12:55 PM 48.9 °F - 28.9 °F 46% 29.78 in 10.0 mi South 23.0 mph 32.2 mph N/A   Overcast
1:55 PM 48.9 °F - 28.9 °F 46% 29.76 in 10.0 mi South 20.7 mph 28.8 mph N/A   Overcast
2:55 PM 48.9 °F - 30.0 °F 48% 29.76 in 10.0 mi South 24.2 mph 31.1 mph N/A   Overcast
3:55 PM 48.0 °F - 30.0 °F 50% 29.75 in 10.0 mi South 23.0 mph 29.9 mph N/A   Overcast
4:55 PM 46.0 °F 37.4 °F 28.9 °F 51% 29.74 in 10.0 mi South 25.3 mph 32.2 mph N/A   Overcast
5:55 PM 44.1 °F 35.4 °F 25.0 °F 47% 29.75 in 10.0 mi SSW 21.9 mph 35.7 mph N/A   Clear
6:55 PM 42.1 °F 33.1 °F 24.1 °F 49% 29.75 in 10.0 mi SSW 20.7 mph 28.8 mph N/A   Clear
7:55 PM 42.1 °F 33.1 °F 21.9 °F 45% 29.73 in 10.0 mi SSW 20.7 mph 26.5 mph N/A   Clear
8:55 PM 41.0 °F 33.1 °F 23.0 °F 49% 29.72 in 10.0 mi SW 15.0 mph 21.9 mph N/A   Overcast
9:55 PM 41.0 °F 35.2 °F 24.1 °F 51% 29.70 in 10.0 mi SSW 9.2 mph - N/A   Overcast
10:55 PM 41.0 °F 32.8 °F 24.1 °F 51% 29.67 in 10.0 mi South 16.1 mph 23.0 mph N/A   Overcast
11:55 PM 39.9 °F 35.1 °F 26.1 °F 58% 29.65 in 10.0 mi SSE 6.9 mph - N/A   Overcast